Location: Wildlife_Club
(35.6000°N, 81.4330°W)
Time: 01:03:43
(UTC-04:00)

Vanguard 1 Rocket - All Passes

Search period start: 20 June 2019 00:00
Search period end: 30 June 2019 00:00
Orbit: 652 x 4224 km, 34.3° (Epoch: 18 June)

Date Brightness Start Highest point End Pass type
(mag) Time Alt. Az. Time Alt. Az. Time Alt. Az.
20 Jun - 00:13:53 10° W 00:19:49 41° SSW 00:24:03 10° SE visible
20 Jun - 15:29:33 10° SSW 15:46:32 26° SE 15:58:16 10° E daylight
20 Jun - 17:56:59 10° SW 18:15:52 54° SSE 18:25:46 10° E daylight
20 Jun - 20:29:28 10° WSW 20:43:19 80° S 20:50:13 10° E daylight
20 Jun - 23:00:50 10° W 23:09:04 65° SSW 23:13:59 10° ESE visible
21 Jun - 01:30:20 10° WSW 01:33:01 14° SW 01:35:28 10° S visible
21 Jun - 14:19:38 10° S 14:32:43 17° SE 14:43:15 10° ESE daylight
21 Jun - 16:42:37 10° SW 17:02:47 43° SSE 17:14:27 10° E daylight
21 Jun - 19:14:05 10° WSW 19:31:15 73° SSE 19:39:41 10° E daylight
21 Jun - 21:46:55 10° W 21:57:54 80° S 22:03:42 10° E visible
22 Jun - 00:16:57 10° W 00:22:34 31° SSW 00:26:40 10° SSE visible
22 Jun - 15:29:24 10° SSW 15:49:12 33° SSE 16:02:16 10° E daylight
22 Jun - 17:58:39 10° SW 18:18:39 63° SSE 18:28:55 10° E daylight
22 Jun - 20:32:02 10° W 20:46:16 84° S 20:53:19 10° E daylight
22 Jun - 23:03:38 10° W 23:11:56 54° SSW 23:16:54 10° SE visible
23 Jun - 14:17:59 10° S 14:35:19 24° SE 14:48:31 10° E daylight
23 Jun - 16:43:43 10° SW 17:05:27 52° SSE 17:17:42 10° E daylight
23 Jun - 19:16:24 10° WSW 19:34:08 79° S 19:42:46 10° E daylight
23 Jun - 21:49:37 10° W 22:00:51 75° SSW 22:06:46 10° ESE visible
24 Jun - 00:20:11 10° W 00:25:13 23° SW 00:29:00 10° SSE visible
24 Jun - 13:10:09 10° SSE 13:21:18 15° SE 13:31:10 10° ESE daylight
24 Jun - 15:29:52 10° SSW 15:51:46 41° SSE 16:05:48 10° E daylight
24 Jun - 18:00:34 10° WSW 18:21:25 71° SSE 18:32:00 10° E daylight
24 Jun - 20:34:38 10° W 20:49:13 84° S 20:56:25 10° E daylight
24 Jun - 23:06:28 10° W 23:14:44 44° SSW 23:19:42 10° SE visible
25 Jun - 14:17:32 10° SSW 14:37:46 31° SE 14:52:46 10° E daylight
25 Jun - 16:45:10 10° SW 17:08:06 60° SSE 17:20:50 10° E daylight
25 Jun - 19:18:49 10° W 19:37:01 83° S 19:45:51 10° E daylight
25 Jun - 21:52:18 10° W 22:03:45 67° SSW 22:09:46 10° ESE visible
26 Jun - 00:23:46 10° W 00:27:44 16° SW 00:30:54 10° S visible
26 Jun - 13:07:31 10° S 13:23:42 21° SE 13:37:30 10° E daylight
26 Jun - 15:30:46 10° SW 15:54:15 49° SSE 16:09:06 10° E daylight
26 Jun - 18:02:40 10° WSW 18:24:10 77° SSE 18:35:03 10° E daylight
26 Jun - 20:37:14 10° W 20:52:09 81° S 20:59:29 10° ESE daylight
26 Jun - 23:09:23 10° W 23:17:22 35° SW 23:22:19 10° SSE visible
27 Jun - 12:04:17 10° SE 12:09:44 11° SE 12:15:02 10° ESE daylight
27 Jun - 14:17:47 10° SSW 14:40:06 38° SE 14:56:27 10° E daylight
27 Jun - 16:46:53 10° WSW 17:10:43 68° SSE 17:23:54 10° E daylight
27 Jun - 19:21:18 10° W 19:39:54 85° S 19:48:56 10° E daylight
27 Jun - 21:54:58 10° W 22:06:33 58° SSW 22:12:40 10° SE visible
28 Jun - 00:28:28 10° WSW 00:30:07 11° SW 00:31:37 10° SSW visible
28 Jun - 13:06:39 10° S 13:25:55 27° SE 13:42:12 10° E daylight
28 Jun - 15:32:03 10° SW 15:56:42 57° SSE 16:12:14 10° E daylight
28 Jun - 18:04:57 10° WSW 18:26:57 82° S 18:38:05 10° E daylight
28 Jun - 20:39:48 10° W 20:55:02 76° SSW 21:02:30 10° ESE daylight
28 Jun - 23:12:27 10° W 23:19:52 27° SW 23:24:41 10° SSE visible
29 Jun - 11:58:41 10° SSE 12:11:58 17° SE 12:24:34 10° E daylight
29 Jun - 14:18:33 10° SSW 14:42:21 46° SSE 14:59:48 10° E daylight
29 Jun - 16:48:51 10° WSW 17:13:20 75° SSE 17:26:55 10° E daylight
29 Jun - 19:23:49 10° W 19:42:46 84° S 19:51:59 10° E daylight
29 Jun - 21:57:40 10° W 22:09:13 48° SSW 22:15:26 10° SE visible
